Location: Chacón
(10.5789°N, 66.9317°W)
Time: 04:43:20
(UTC+00:00)

Sakura Rocket - Pass Details

Date: 19 August 2024
Orbit: 475 x 1710 km, 28.7° (Epoch: 16 September)

Event Time Altitude Azimuth Distance (km) Brightness Sun altitude
Exits shadow 08:11:48 43° 161° (SSE) 1,405 4.7 -30.6°
Drops below altitude 10° 08:17:31 10° 132° (SE) 3,185 7.0 -29.3°
Sets 08:20:57 0° 128° (SE) 4,359 7.8 -28.5°
